This is the latest recevied weather packets stored in our database for station/object F5OWB. If no packets are shown the sender has not sent any weather packets the latest 10 day(s).
| Time | Temp. | Humidity | Pressure | Rain* | Wind** | Luminosity | Snow |
|---|---|---|---|---|---|---|---|
| 1778158723 | 17.22° C | 58% | 1018 hPa | 0 mm | - | 779 W/m² | - |
| 1778158663 | 17.22° C | 57% | 1018 hPa | 0 mm | - | 782 W/m² | - |
| 1778158600 | 17.22° C | 58% | 1018 hPa | 0 mm | - | 784 W/m² | - |
| 1778158543 | 17.22° C | 59% | 1018 hPa | 0 mm | - | 789 W/m² | - |
| 1778158514 | 17.22° C | 58% | 1018 hPa | 0 mm | - | 793 W/m² | - |
| 1778158481 | 17.22° C | 58% | 1018 hPa | 0 mm | - | 793 W/m² | - |
| 1778158424 | 17.22° C | 57% | 1018 hPa | 0 mm | - | 798 W/m² | - |
| 1778158364 | 17.22° C | 56% | 1018 hPa | 0 mm | - | 800 W/m² | - |
| 1778158302 | 17.22° C | 57% | 1018 hPa | 0 mm | - | 800 W/m² | - |
| 1778158241 | 17.22° C | 57% | 1018.1 hPa | 0 mm | - | 800 W/m² | - |
| 1778158181 | 17.22° C | 59% | 1018.1 hPa | 0 mm | - | 798 W/m² | - |
| 1778158121 | 17.22° C | 60% | 1018.1 hPa | 0 mm | - | 798 W/m² | - |
| 1778158055 | 17.22° C | 57% | 1018 hPa | 0 mm | - | 791 W/m² | - |
| 1778157996 | 17.22° C | 56% | 1018 hPa | 0 mm | - | 800 W/m² | - |
| 1778157933 | 17.22° C | 57% | 1018 hPa | 0 mm | - | 807 W/m² | - |
| 1778157913 | 17.22° C | 58% | 1018.1 hPa | 0 mm | - | 803 W/m² | - |
| 1778157873 | 17.22° C | 57% | 1018 hPa | 0 mm | - | 807 W/m² | - |
| 1778157851 | 17.22° C | 56% | 1018 hPa | 0 mm | - | 803 W/m² | - |
| 1778157813 | 17.22° C | 58% | 1018.1 hPa | 0 mm | - | 803 W/m² | - |
| 1778157753 | 17.22° C | 56% | 1018 hPa | 0 mm | - | 803 W/m² | - |
| 1778157695 | 17.22° C | 57% | 1018 hPa | 0 mm | - | 800 W/m² | - |
| 1778157694 | 17.22° C | 57% | 1018 hPa | 0 mm | - | 800 W/m² | - |
| 1778157635 | 17.22° C | 56% | 1018.1 hPa | 0 mm | - | 800 W/m² | - |
| 1778157575 | 17.22° C | 57% | 1018.1 hPa | 0 mm | - | 798 W/m² | - |
| 1778157550 | 17.22° C | 58% | 1018.1 hPa | 0 mm | - | 798 W/m² | - |
* Rain latest hour (hover to see other rain measurements)
** Current wind speed in m/s (hover to see current wind gust speed)